sat.trackr.live / text

‹ back to catalog

STARLINK-32299

NORAD 61702 · 2024-195R

PAYLOAD ACTIVE UNKNOWN

§ Identity

Operator
Country
US
Launch date
2024-10-30
Launch site
AFWTR
Launch vehicle
Mass (kg)
RCS (m²)

Purposes: comms

External: N2YO · Heavens-Above · Gunter

§ Orbital elements

Epoch: 2026-05-24T07:30:25.511328Z

Period
93.85 min
Inclination
53.1613°
Eccentricity
0.0001634
Mean motion
15.34407639 rev/d
Perigee alt
461.6 km
Apogee alt
463.8 km
Semi-major
6,840.8 km
B*
1.0882e-4
RAAN
163.1116°
Arg perigee
86.6153°
Mean anomaly
273.5037°
Rev number
8,884

§ Raw data

STARLINK-322991 61702U 24195R   26144.31279527  .00003303  00000+0  10882-3 0  99902 61702  53.1613 163.1116 0001634  86.6153 273.5037 15.34407639 88846

JSON: /api/v1/satellites/61702 · /tle

For live sub-satellite position, see the globe view (requires WebGL).

§ Visibility from observer

Set your observer location to see the next 7 days of passes ≥ 10°. The values pass through the URL so the page stays shareable.

No JS? Fill the form by hand. The geolocation button needs JavaScript.